Back to catalog

SL-8 R/B

AliveLEO
NORAD 11883·ROCKET BODY·🇷🇺 Russia

Launched Jul 9, 1980 from Plesetsk Cosmodrome

Loading…

Next Passes (next 24 hours)

TLE

FreshSource: Space-Track

Epoch: Sep 14, 2026, 05:08 UTC

1 11883U 80058J   26257.21457368 -.00000044  00000-0 -25174-3 0  9992
2 11883  74.0111 180.1016 0134030 281.1397 249.0613 12.24006628 63494

Track SL-8 R/B in real time with AllMySat

Download on the App Store